Wind_Speed
19 19 19 19 17 16 15 14 15 15 15 15 15 14 14 13 13 14 14 15 15 15 15 15 16 16 16 16 16 16 16 17 17 18 18 18 18 19 19 19 19 19 19
20 19 19 19 17 16 15 15 15 16 16 16 16 15 15 15 15 15 15 15 14 14 15 16 16 17 17 16 17 17 17 18 18 17 18 18 18 19 19 19 19 19 20
19 19 19 19 18 17 16 16 16 16 15 16 15 16 16 16 16 16 15 15 14 13 15 15 15 16 17 17 18 18 19 19 18 18 18 18 18 19 19 20 20 20 21
18 18 18 18 17 16 16 16 16 15 15 15 15 16 16 16 14 14 14 14 14 14 14 14 15 16 17 18 19 19 19 19 19 18 18 18 19 20 20 20 21 22 22
18 18 18 17 17 17 16 16 15 14 14 14 14 15 14 15 14 13 14 14 15 15 15 15 16 17 18 19 19 19 19 19 18 18 19 19 19 20 20 20 21 22 22
18 18 18 17 17 16 15 15 15 15 15 14 14 13 13 13 13 14 14 14 15 15 15 16 17 18 18 19 19 19 19 19 19 19 19 19 19 20 20 21 20 21 21
18 17 17 16 16 16 15 15 15 15 15 15 15 14 13 13 13 14 14 14 15 16 17 17 18 18 19 19 20 20 20 20 20 20 20 20 20 20 21 21 21 21 21
17 17 17 16 16 16 15 14 14 15 15 15 15 15 15 14 14 14 14 15 15 16 17 17 18 19 18 19 20 21 21 20 21 21 21 21 21 22 22 22 22 22 21
17 17 17 16 16 15 15 15 14 15 15 15 16 17 16 15 15 15 15 15 16 17 17 18 18 19 19 19 20 20 20 20 20 21 21 21 22 23 23 23 23 22 22
18 18 17 17 17 16 15 15 15 15 16 16 16 15 15 16 16 17 17 17 17 18 18 19 19 19 19 20 20 20 20 21 21 21 22 22 23 22 23 23 23 23 23
19 19 18 18 17 16 16 16 15 16 16 16 15 15 16 17 17 17 18 18 18 18 19 20 20 20 20 20 21 21 21 21 21 22 22 23 23 23 23 23 22 22 23
21 20 19 19 18 17 17 17 16 16 15 15 16 17 17 17 17 18 19 19 20 20 20 20 21 21 21 21 21 22 22 22 22 22 23 23 22 23 22 22 22 22 22
21 21 20 20 19 19 18 17 16 16 16 16 17 17 18 18 19 19 19 20 21 21 21 21 21 21 22 22 22 23 23 23 23 23 23 23 23 22 22 22 22 22 22
20 21 20 20 19 20 20 19 17 17 17 17 17 18 19 20 20 19 20 20 21 21 22 21 22 22 23 23 23 24 24 24 23 23 23 23 22 22 21 21 21 21 21
19 19 19 20 20 20 20 19 18 18 19 19 19 19 20 20 19 19 20 21 22 22 22 22 22 22 23 23 23 23 24 23 22 22 22 22 22 21 22 22 21 21 21
18 18 18 19 20 19 19 19 19 20 20 20 20 19 19 19 20 21 21 21 21 22 22 23 23 23 23 24 24 23 23 23 22 22 23 22 22 22 22 22 21 21 21
18 18 18 19 19 19 20 20 20 20 21 20 20 19 19 20 20 21 21 21 22 22 21 22 22 22 23 23 23 23 23 23 23 23 23 23 23 23 22 22 22 22 22
18 18 19 18 18 18 19 19 20 20 20 20 19 19 20 20 20 21 21 22 22 22 22 21 21 21 22 22 22 22 22 23 22 22 23 23 22 23 23 23 23 23 23
19 18 18 17 18 19 19 19 20 20 19 19 19 19 20 20 20 21 21 21 22 22 22 23 22 21 21 21 21 22 22 22 22 22 22 22 22 23 23 23 24 24 24
20 20 20 20 19 20 20 20 20 21 21 21 21 21 21 21 21 21 21 21 22 21 22 22 21 21 21 21 21 22 22 22 22 22 22 23 23 24 24 24 24 24 24
21 20 20 21 21 22 22 22 22 22 21 21 21 21 21 21 21 21 21 22 22 21 21 21 21 22 22 22 22 22 22 22 23 23 23 23 24 24 24 24 24 24 24
23 22 22 22 22 22 22 23 23 22 22 22 21 21 21 21 22 22 22 21 21 21 21 21 21 21 22 22 22 22 22 22 22 22 23 23 23 23 23 23 23 23 24
23 23 23 23 23 23 24 23 22 22 22 21 21 22 21 22 23 23 22 22 22 22 21 21 21 22 22 23 22 22 22 23 23 23 22 23 22 23 23 23 23 23 23
23 23 23 24 24 24 23 22 21 21 21 21 21 22 22 22 22 23 23 23 22 21 22 22 22 22 22 21 21 22 22 23 23 23 22 22 22 22 22 22 23 23 24
21 22 22 23 23 23 22 22 22 22 21 21 21 22 22 22 22 23 23 23 22 23 23 23 22 22 21 21 20 21 22 22 21 22 21 21 20 20 21 21 22 22 23
22 22 23 23 23 23 23 23 23 23 23 22 22 22 22 22 22 22 22 22 23 23 23 22 22 22 21 21 20 20 21 21 21 21 21 20 19 19 19 19 19 20 20
Wind_Direction
283 290 296 296 292 289 288 282 277 272 271 270 267 265 266 269 271 268 266 264 262 258 256 255 257 257 257 258 261 264 266 268 269 271 273 274 275 277 281 283 284 282 282
282 286 291 292 290 288 286 282 277 275 273 270 267 264 263 265 266 265 264 265 262 258 256 256 255 256 258 261 265 267 269 271 273 273 273 273 274 278 282 285 283 282 282
284 286 287 289 288 287 284 282 277 273 269 268 268 269 266 266 263 260 260 259 257 258 256 255 256 257 260 263 268 272 272 272 272 272 272 272 274 278 280 281 281 282 283
283 285 289 289 287 286 282 280 278 275 270 270 268 270 268 264 262 258 259 256 258 260 257 258 263 261 260 263 268 271 273 274 272 270 271 274 277 280 280 280 281 282 283
282 283 287 289 289 288 284 280 278 274 271 270 270 270 268 263 259 259 263 260 262 261 257 259 262 265 267 268 270 271 273 273 271 269 271 275 279 281 282 281 281 282 282
281 282 285 285 287 284 281 280 278 273 270 271 270 272 269 265 263 261 262 263 264 263 261 259 262 264 267 269 270 271 272 270 271 273 274 276 279 282 283 282 282 282 282
279 282 282 281 285 283 281 280 278 273 270 271 270 272 268 265 266 265 262 265 267 268 265 263 262 263 266 268 270 272 272 273 273 274 275 276 277 280 282 283 282 282 281
279 282 283 282 284 283 280 275 274 271 270 271 271 270 268 267 267 265 264 266 268 268 266 265 265 265 266 268 270 272 271 275 273 273 275 275 275 278 281 282 280 280 282
280 285 288 285 284 283 280 276 272 273 274 274 272 270 267 267 269 268 267 267 267 267 265 267 269 267 267 268 271 272 273 275 277 277 277 276 276 276 278 281 282 281 283
281 283 285 278 276 277 278 276 275 276 272 273 272 269 268 268 270 270 268 269 270 269 267 268 269 268 269 269 270 272 273 274 277 279 280 280 278 276 277 278 279 279 281
278 281 282 277 275 275 274 275 276 274 272 270 268 267 266 269 270 270 269 270 272 271 270 270 269 269 269 269 270 272 273 275 277 280 280 279 280 278 279 279 281 281 282
275 275 277 277 275 273 275 275 274 273 272 270 269 268 268 269 270 271 270 272 274 274 272 271 270 269 269 269 270 272 274 275 277 279 281 280 281 281 281 280 281 282 281
274 274 275 274 274 271 273 272 272 273 273 275 274 272 271 271 273 272 273 274 276 276 275 273 270 268 268 269 271 273 275 277 278 278 278 279 280 281 281 281 281 281 281
275 273 272 273 273 272 272 271 273 275 275 275 275 274 272 272 273 273 273 275 276 276 275 273 271 269 269 270 273 274 275 278 278 277 276 277 278 278 279 281 282 281 281
276 273 271 269 269 269 270 270 273 275 275 274 274 275 274 274 273 275 275 275 277 277 275 273 272 271 271 271 273 274 276 277 277 275 275 277 277 277 278 280 283 283 283
275 272 269 267 266 268 271 273 273 274 273 272 273 274 274 274 276 278 278 277 277 278 277 274 272 270 270 271 273 274 275 275 275 274 274 275 277 277 280 280 281 282 282
275 270 270 272 272 272 271 272 273 274 274 274 274 273 274 276 277 277 278 279 280 282 278 276 274 271 270 272 274 275 275 275 274 273 273 275 277 277 279 280 280 280 281
275 273 271 271 271 272 273 275 274 275 275 273 273 275 274 276 277 277 279 280 280 281 279 276 276 275 275 275 275 275 277 276 273 272 273 274 275 276 277 277 278 280 280
271 272 271 271 268 269 272 276 276 275 274 274 275 275 275 275 275 277 279 280 281 281 280 278 276 276 276 275 274 275 277 276 276 275 275 275 275 278 277 277 277 279 280
269 269 269 270 270 270 272 275 276 274 274 275 276 276 275 275 275 278 280 281 281 282 281 279 277 276 275 275 274 275 274 274 274 275 276 277 278 279 279 278 277 279 279
269 269 267 268 269 270 271 273 273 272 273 275 275 275 276 277 278 280 281 282 282 282 282 280 279 277 276 275 274 275 273 274 274 274 276 278 280 280 278 277 278 278 278
270 270 269 268 269 270 272 272 271 270 270 272 274 275 277 277 279 280 281 282 282 282 282 281 280 278 276 276 275 274 273 275 275 275 276 278 280 279 277 277 277 278 278
270 273 271 270 271 272 272 271 270 269 268 270 272 274 276 277 278 280 280 280 281 281 279 279 280 279 275 274 273 272 273 274 275 277 277 278 279 279 277 276 277 278 279
271 272 271 270 271 271 270 269 269 269 270 272 274 275 275 276 276 277 279 280 279 279 279 279 280 281 278 275 274 274 275 275 276 277 278 278 278 279 278 278 278 278 280
270 271 274 274 274 273 272 272 273 272 273 274 275 276 276 276 276 277 278 279 279 279 279 280 280 279 278 276 275 276 276 276 276 277 278 279 279 279 281 281 281 280 280
272 274 274 276 275 275 275 275 275 274 277 279 279 279 279 279 279 279 278 278 279 280 279 279 280 279 279 276 276 276 275 275 276 277 278 279 279 281 281 283 284 282 282
Height
5835 5834 5832 5831 5830 5828 5827 5826 5826 5826 5826 5826 5827 5827 5828 5829 5829 5829 5829 5830 5831 5832 5832 5833 5834 5835 5836 5836 5837 5837 5837 5838 5838 5838 5838 5838 5838 5837 5837 5836 5835 5835 5834
5831 5830 5829 5827 5826 5824 5823 5823 5822 5822 5822 5823 5823 5824 5824 5824 5825 5826 5826 5827 5827 5828 5829 5829 5830 5831 5832 5832 5833 5833 5833 5833 5833 5834 5833 5833 5834 5833 5832 5831 5831 5830 5829
5826 5825 5824 5823 5822 5821 5820 5819 5818 5818 5818 5818 5819 5819 5820 5820 5821 5822 5822 5823 5823 5824 5825 5825 5826 5827 5828 5828 5829 5829 5829 5829 5829 5829 5829 5829 5829 5828 5828 5827 5826 5825 5824
5822 5821 5820 5819 5818 5817 5815 5814 5814 5814 5814 5814 5815 5815 5816 5816 5817 5818 5819 5819 5820 5821 5821 5822 5823 5823 5824 5824 5825 5825 5824 5824 5824 5824 5824 5824 5824 5823 5823 5822 5821 5820 5819
5818 5817 5816 5815 5814 5813 5811 5810 5810 5810 5810 5810 5811 5811 5812 5813 5813 5814 5815 5816 5816 5817 5817 5818 5819 5820 5820 5820 5820 5820 5820 5820 5820 5819 5819 5819 5818 5818 5817 5817 5815 5814 5813
5814 5813 5812 5811 5810 5808 5807 5806 5806 5806 5806 5806 5807 5807 5808 5808 5809 5810 5812 5812 5812 5813 5813 5814 5815 5815 5815 5815 5815 5815 5815 5815 5815 5814 5814 5813 5813 5812 5812 5810 5809 5809 5808
5810 5809 5808 5807 5806 5805 5803 5802 5802 5802 5802 5802 5803 5803 5804 5805 5806 5806 5807 5808 5808 5808 5809 5809 5810 5810 5810 5811 5811 5811 5811 5810 5810 5809 5808 5808 5808 5807 5806 5805 5804 5803 5803
5806 5805 5804 5803 5802 5801 5800 5799 5798 5798 5798 5799 5799 5799 5800 5800 5801 5802 5803 5803 5804 5804 5804 5804 5805 5805 5805 5805 5805 5805 5805 5804 5804 5803 5803 5802 5802 5801 5800 5799 5799 5798 5797
5801 5801 5800 5799 5798 5797 5796 5795 5795 5794 5794 5794 5795 5795 5795 5796 5797 5797 5798 5799 5799 5799 5799 5799 5799 5800 5800 5800 5800 5800 5799 5799 5798 5798 5797 5797 5796 5795 5794 5793 5792 5792 5791
5797 5796 5796 5795 5794 5793 5792 5792 5792 5791 5790 5791 5791 5791 5792 5792 5793 5793 5794 5794 5794 5794 5794 5794 5794 5794 5794 5794 5794 5794 5793 5793 5793 5792 5791 5790 5790 5789 5788 5787 5786 5785 5785
5792 5791 5791 5790 5789 5788 5788 5788 5787 5787 5787 5787 5787 5787 5788 5788 5789 5789 5789 5789 5789 5789 5789 5789 5788 5788 5788 5788 5788 5788 5788 5787 5787 5786 5785 5785 5784 5783 5782 5781 5780 5779 5778
5786 5786 5785 5785 5784 5784 5783 5783 5783 5783 5783 5783 5783 5783 5783 5784 5784 5784 5784 5784 5784 5783 5783 5783 5783 5782 5782 5782 5782 5782 5782 5782 5781 5780 5779 5778 5778 5777 5776 5775 5774 5773 5772
5780 5780 5779 5779 5779 5779 5779 5778 5778 5778 5778 5778 5778 5778 5778 5778 5778 5778 5778 5778 5778 5777 5777 5776 5776 5776 5776 5776 5776 5776 5776 5775 5775 5774 5773 5772 5772 5771 5770 5769 5768 5767 5766
5774 5774 5774 5774 5774 5774 5774 5774 5773 5773 5773 5773 5773 5773 5773 5773 5773 5773 5772 5772 5772 5771 5771 5770 5769 5769 5769 5769 5769 5769 5769 5768 5768 5767 5767 5766 5765 5765 5764 5763 5762 5761 5760
5768 5768 5768 5768 5768 5768 5769 5769 5768 5768 5768 5768 5768 5767 5767 5767 5767 5767 5766 5766 5765 5765 5764 5763 5762 5762 5763 5763 5762 5762 5762 5761 5761 5761 5760 5760 5759 5759 5758 5757 5756 5755 5754
5763 5763 5762 5762 5762 5763 5763 5763 5763 5763 5762 5762 5762 5762 5762 5761 5761 5761 5760 5760 5759 5758 5757 5756 5755 5755 5755 5755 5755 5755 5755 5754 5754 5754 5754 5753 5753 5752 5752 5751 5750 5749 5748
5758 5757 5757 5757 5757 5757 5757 5757 5757 5757 5757 5756 5756 5756 5756 5755 5755 5754 5754 5753 5752 5751 5750 5749 5748 5748 5748 5748 5747 5747 5747 5747 5747 5747 5747 5747 5746 5746 5745 5744 5744 5743 5742
5752 5752 5752 5752 5752 5752 5752 5752 5751 5751 5751 5750 5750 5750 5749 5749 5748 5748 5747 5746 5745 5744 5743 5742 5742 5741 5740 5740 5740 5740 5740 5740 5740 5740 5740 5740 5739 5739 5739 5738 5737 5736 5735
5747 5747 5747 5747 5747 5747 5746 5746 5746 5746 5745 5745 5744 5744 5743 5743 5742 5741 5741 5739 5738 5737 5736 5735 5734 5734 5733 5733 5733 5733 5733 5733 5733 5733 5733 5732 5732 5732 5732 5731 5730 5729 5728
5742 5741 5741 5742 5741 5741 5741 5741 5740 5740 5740 5739 5739 5738 5737 5737 5736 5735 5734 5733 5732 5731 5729 5728 5727 5727 5727 5727 5726 5726 5726 5726 5726 5726 5726 5725 5725 5725 5724 5724 5723 5722 5721
5736 5736 5736 5736 5735 5735 5735 5735 5734 5734 5734 5733 5732 5732 5731 5730 5730 5729 5728 5727 5725 5724 5723 5722 5721 5720 5720 5720 5719 5719 5719 5719 5719 5719 5719 5718 5718 5717 5717 5716 5716 5715 5714
5730 5730 5730 5729 5729 5729 5728 5728 5728 5727 5727 5727 5726 5725 5725 5724 5723 5722 5721 5720 5719 5718 5717 5716 5714 5713 5713 5712 5711 5711 5711 5711 5712 5712 5712 5711 5711 5710 5709 5708 5708 5707 5706
5723 5723 5723 5723 5722 5722 5722 5721 5721 5721 5720 5720 5719 5719 5718 5718 5717 5716 5715 5714 5713 5712 5711 5709 5708 5707 5706 5705 5704 5704 5704 5704 5704 5704 5704 5704 5703 5702 5702 5701 5700 5700 5699
5717 5716 5716 5716 5716 5715 5714 5714 5714 5714 5713 5713 5713 5712 5711 5711 5710 5709 5708 5707 5706 5705 5704 5703 5702 5700 5699 5698 5698 5697 5697 5697 5697 5697 5697 5696 5695 5695 5694 5694 5693 5692 5692
5709 5709 5709 5709 5709 5708 5707 5706 5706 5706 5706 5706 5705 5705 5704 5703 5703 5702 5701 5700 5699 5698 5697 5696 5695 5694 5693 5692 5691 5691 5691 5691 5691 5690 5690 5689 5689 5688 5688 5687 5686 5685 5685
5702 5702 5702 5701 5701 5701 5700 5700 5699 5699 5699 5698 5698 5698 5697 5697 5696 5695 5694 5693 5692 5691 5690 5689 5688 5687 5686 5685 5685 5684 5684 5684 5683 5683 5683 5683 5682 5682 5681 5681 5680 5679 5679